Find Starlink 4634

NORAD ID: 53967 Int'l Des: 2022-125 Owner: SPXS Country: US Constellation: starlink operational
LEOCIRCULAR

Live Position

Loading 3D Globe...

About Starlink 4634

Description loading...

Upcoming Passes

Passes for default location (London). Set your location on the main map for personalized predictions.

Altitude History

Loading altitude history...

Two-Line Element Set

1 53967U 22125D 26121.89396759 .00000712 00000-0 62824-4 0 9996
2 53967 53.2185 345.3133 0001450 87.9928 272.1230 15.08841850197353
Epoch: May 1, 2026 • Age: 25 hours

Current Status

Altitude 558.0 km
Velocity 7.58 km/s
Sub-Earth Point -50.17°S, 26.59°E
Launch Date Oct 5, 2022
Age 3.5 years
Type internet

Technical Details

Classification Payload
Mass 305.00 kg
Dry Mass 290.00 kg
Total Mass 305.00 kg
Length 0.20 m
Diameter 2.80 m
Span 9.00 m
Shape Box + pan
Manufacturer SPXS
Bus Type Starlink
Phase Status In Orbit
Owner/State SPXS/US

Most Searched